This demonstration page uses our WeatherBlox Daily Observations layout. Learn more.

Left ArrowRight Arrow

Hourly Observations for May 7, 2020

Temp ( °F °C ) Dew Point ( °F °C ) Humidity (%) Winds ( mph kmh ) Pressure ( in mb ) Visibility ( mi km ) Precip ( " mm )
12:56 am 00:56 Clear 45 7.2 37 2.8 74 74 SE 8 13 30.21 1023 10 16 0.00 0.00
1:56 am 01:56 Clear 43 6.1 36 2.2 76 76 SE 8 13 30.17 1022 10 16 0.00 0.00
2:56 am 02:56 Clear 44 6.7 37 2.8 76 76 SE 6 9 30.16 1021 10 16 0.00 0.00
3:56 am 03:56 Cloudy 46 7.8 37 2.8 71 71 SSE 12 19 30.13 1020 10 16 0.00 0.00
4:56 am 04:56 Cloudy 47 8.3 37 2.8 69 69 S 12 19 30.12 1020 10 16 0.00 0.00
5:56 am 05:56 Mostly Cloudy 47 8.3 38 3.3 71 71 SE 14 22 30.05 1018 10 16 0.00 0.00
6:56 am 06:56 Cloudy 47 8.3 38 3.3 71 71 SSW 9 15 30.15 1021 10 16 0.00 0.00
7:56 am 07:56 Partly Cloudy with Light Rain 46 7.8 40 4.4 79 79 SSE 20 31 30.06 1018 10 16 0.00 0.00
8:56 am 08:56 Mostly Cloudy 51 10.6 41 5 69 69 SE 17 28 30.03 1017 10 16 0.00 0.00
9:56 am 09:56 Mostly Cloudy 52 11.1 41 5 66 66 SSE 17 28 30.04 1017 10 16 0.00 0.00
10:56 am 10:56 Cloudy 55 12.8 42 5.6 62 62 SSE 17 28 30.03 1017 10 16 0.00 0.00
11:56 am 11:56 Mostly Sunny 58 14.4 44 6.7 60 60 SSE 16 26 30.01 1016 10 16 0.00 0.00
12:56 pm 12:56 Sunny 61 16.1 44 6.7 54 54 SE 13 20 29.96 1014 10 16 0.00 0.00
1:56 pm 13:56 Cloudy 60 15.6 43 6.1 53 53 SSE 20 31 29.93 1014 10 16 0.00 0.00
2:56 pm 14:56 Mostly Cloudy 65 18.3 47 8.3 52 52 SSE 21 33 29.89 1012 10 16 0.00 0.00
3:56 pm 15:56 Mostly Cloudy 65 18.3 46 7.8 51 51 SE 18 30 29.86 1011 10 16 0.00 0.00
4:56 pm 16:56 Mostly Cloudy 61 16.1 45 7.2 56 56 ESE 22 35 29.87 1011 10 16 0.00 0.00
5:56 pm 17:56 Mostly Cloudy 59 15 46 7.8 62 62 ESE 22 35 29.86 1011 10 16 0.00 0.00
6:56 pm 18:56 Cloudy with Light Rain 58 14.4 46 7.8 65 65 E 14 22 29.91 1013 10 16 0.00 0.00
7:14 pm 19:14 Cloudy with Nearby Thunderstorms 55 13 48 9 77 77 E 18 30 29.89 1012 10 16 0.00 0.00
7:29 pm 19:29 Cloudy with Light Rain 54 12 48 9 82 82 ESE 10 17 29.91 1013 10 16 0.02 0.51
7:56 pm 19:56 Partly Cloudy 53 11.7 49 9.4 86 86 SE 15 24 29.91 1013 10 16 0.09 2.29
8:56 pm 20:56 Cloudy 54 12.2 50 10 87 87 WSW 10 17 29.96 1015 10 16 0.00 0.00
9:11 pm 21:11 Cloudy 55 13 48 9 77 77 NW 16 26 29.96 1015 10 16 0.00 0.00
9:15 pm 21:15 Mostly Cloudy 54 12 46 8 77 77 NNW 22 35 29.97 1015 10 16 0.00 0.00
9:56 pm 21:56 Clear 50 10 44 6.7 80 80 NNW 16 26 30.01 1016 10 16 0.00 0.00
10:56 pm 22:56 Clear 46 7.8 41 5 83 83 NNW 15 24 30.04 1017 10 16 0.00 0.00
11:22 pm 23:22 Mostly Cloudy 46 8 43 6 87 87 NW 16 26 30.07 1018 10 16 0.00 0.00
11:56 pm 23:56 Cloudy 47 8.3 44 6.7 90 90 N 21 33 30.06 1018 10 16 0.00 0.00

Powered by AerisWeather